2021-022R

Last updated on Thu Apr 22 2021 00:02:03 GMT+0000 (Coordinated Universal Time)

1 47947U 21022R 21111.49152956 .00000584 00000-0 43600-4 0 9999 2 47947 97.5606 14.8173 0019245 135.2350 343.5851 15.06503684 4360

Satellite not in orbit

2021-022R